Time,TemperatureF,DewpointF,PressureIn,WindDirection,WindDirectionDegrees,WindSpeedMPH,WindSpeedGustMPH,Humidity,HourlyPrecipIn,Conditions,Clouds,dailyrainin,SoftwareType,DateUTC
2013-11-21 00:00:00,35.4,33.0,30.05,SE,141,0.0,9.0,91,0.00,,,0.00,VWS V14.01,2013-11-21 06:00:00,
2013-11-21 00:02:00,35.4,33.0,30.05,SSW,194,3.0,4.0,91,0.00,,,0.00,VWS V14.01,2013-11-21 06:02:00,
2013-11-21 00:07:00,35.4,33.0,30.05,SSW,192,1.0,4.0,91,0.00,,,0.00,VWS V14.01,2013-11-21 06:07:00,
2013-11-21 00:12:00,35.3,32.9,30.05,SE,144,1.0,5.0,91,0.00,,,0.00,VWS V14.01,2013-11-21 06:12:00,
2013-11-21 00:17:00,35.3,33.2,30.05,SSE,157,2.0,5.0,92,0.00,,,0.00,VWS V14.01,2013-11-21 06:17:00,
2013-11-21 00:21:00,35.2,33.1,30.05,South,190,2.0,5.0,92,0.00,,,0.00,VWS V14.01,2013-11-21 06:21:00,
2013-11-21 00:26:00,35.2,33.1,30.05,South,180,1.0,5.0,92,0.00,,,0.00,VWS V14.01,2013-11-21 06:26:00,
2013-11-21 00:31:00,35.2,33.1,30.06,South,179,2.0,3.0,92,0.00,,,0.00,VWS V14.01,2013-11-21 06:31:00,
2013-11-21 00:36:00,35.1,33.3,30.06,SSW,192,1.0,3.0,93,0.00,,,0.00,VWS V14.01,2013-11-21 06:36:00,
2013-11-21 00:41:00,35.0,33.2,30.06,SSW,192,0.0,3.0,93,0.00,,,0.00,VWS V14.01,2013-11-21 06:41:00,
2013-11-21 00:46:00,35.0,33.5,30.06,SSW,192,0.0,3.0,94,0.00,,,0.00,VWS V14.01,2013-11-21 06:46:00,
2013-11-21 00:51:00,34.9,33.3,30.06,SSE,167,3.0,4.0,94,0.00,,,0.00,VWS V14.01,2013-11-21 06:51:00,
2013-11-21 00:56:00,34.9,33.3,30.06,SSE,167,1.0,4.0,94,0.00,,,0.00,VWS V14.01,2013-11-21 06:56:00,
2013-11-21 01:00:00,34.8,33.5,30.06,SSE,166,1.0,4.0,95,0.00,,,0.00,VWS V14.01,2013-11-21 07:00:00,
2013-11-21 01:01:00,34.8,33.5,30.06,SSE,166,3.0,4.0,95,0.00,,,0.00,VWS V14.01,2013-11-21 07:01:00,
2013-11-21 01:06:00,34.8,33.5,30.06,SSE,153,1.0,5.0,95,0.00,,,0.00,VWS V14.01,2013-11-21 07:06:00,
2013-11-21 01:11:00,34.7,33.4,30.06,SSE,153,0.0,5.0,95,0.00,,,0.00,VWS V14.01,2013-11-21 07:11:00,
2013-11-21 01:16:00,34.7,33.4,30.06,South,180,2.0,5.0,95,0.00,,,0.00,VWS V14.01,2013-11-21 07:16:00,
2013-11-21 01:21:00,34.7,33.4,30.06,South,180,0.0,5.0,95,0.00,,,0.00,VWS V14.01,2013-11-21 07:21:00,
2013-11-21 01:26:00,34.7,33.4,30.06,South,180,2.0,5.0,95,0.00,,,0.00,VWS V14.01,2013-11-21 07:26:00,
2013-11-21 01:30:00,34.6,33.3,30.06,South,180,0.0,5.0,95,0.00,,,0.00,VWS V14.01,2013-11-21 07:30:00,
2013-11-21 01:31:00,34.7,33.4,30.06,South,172,3.0,3.0,95,0.00,,,0.00,VWS V14.01,2013-11-21 07:31:00,
2013-11-21 01:36:00,34.6,33.6,30.06,South,172,0.0,3.0,96,0.00,,,0.00,VWS V14.01,2013-11-21 07:36:00,
2013-11-21 01:41:00,34.6,33.6,30.07,South,172,0.0,3.0,96,0.00,,,0.00,VWS V14.01,2013-11-21 07:41:00,
2013-11-21 01:46:00,34.6,33.6,30.07,South,172,0.0,3.0,96,0.00,,,0.00,VWS V14.01,2013-11-21 07:46:00,
2013-11-21 01:51:00,34.6,33.6,30.07,South,172,1.0,3.0,96,0.00,,,0.00,VWS V14.01,2013-11-21 07:51:00,
2013-11-21 01:56:00,34.6,33.6,30.07,South,172,0.0,3.0,96,0.00,,,0.00,VWS V14.01,2013-11-21 07:56:00,
2013-11-21 02:00:00,34.6,33.6,30.07,South,172,1.0,3.0,96,0.00,,,0.00,VWS V14.01,2013-11-21 08:00:00,
2013-11-21 02:01:00,34.6,33.6,30.07,South,172,0.0,2.0,96,0.00,,,0.00,VWS V14.01,2013-11-21 08:01:00,
2013-11-21 02:06:00,34.6,33.6,30.07,South,172,1.0,2.0,96,0.00,,,0.00,VWS V14.01,2013-11-21 08:06:00,
2013-11-21 02:11:00,34.6,33.6,30.08,South,172,1.0,2.0,96,0.00,,,0.00,VWS V14.01,2013-11-21 08:11:00,
2013-11-21 02:16:00,34.6,33.6,30.08,South,172,1.0,2.0,96,0.00,,,0.00,VWS V14.01,2013-11-21 08:16:00,
2013-11-21 02:21:00,34.6,33.8,30.08,South,172,0.0,2.0,97,0.00,,,0.00,VWS V14.01,2013-11-21 08:21:00,
2013-11-21 02:26:00,34.6,33.8,30.08,South,172,1.0,2.0,97,0.00,,,0.00,VWS V14.01,2013-11-21 08:26:00,
2013-11-21 02:30:00,34.6,33.8,30.08,South,172,2.0,3.0,97,0.00,,,0.00,VWS V14.01,2013-11-21 08:30:00,
2013-11-21 02:31:00,34.6,33.8,30.08,South,171,2.0,4.0,97,0.00,,,0.00,VWS V14.01,2013-11-21 08:31:00,
2013-11-21 02:36:00,34.6,33.8,30.08,South,169,1.0,4.0,97,0.00,,,0.00,VWS V14.01,2013-11-21 08:36:00,
2013-11-21 02:41:00,34.6,33.8,30.08,South,169,0.0,4.0,97,0.00,,,0.00,VWS V14.01,2013-11-21 08:41:00,
2013-11-21 02:46:00,34.6,33.8,30.08,South,169,0.0,4.0,97,0.00,,,0.00,VWS V14.01,2013-11-21 08:46:00,
2013-11-21 02:51:00,34.6,33.8,30.08,South,169,0.0,4.0,97,0.00,,,0.00,VWS V14.01,2013-11-21 08:51:00,
2013-11-21 02:56:00,34.6,33.8,30.08,South,169,0.0,4.0,97,0.00,,,0.00,VWS V14.01,2013-11-21 08:56:00,
2013-11-21 03:00:00,34.5,33.7,30.08,South,169,1.0,4.0,97,0.00,,,0.00,VWS V14.01,2013-11-21 09:00:00,
2013-11-21 03:01:00,34.6,33.8,30.08,South,169,1.0,1.0,97,0.00,,,0.00,VWS V14.01,2013-11-21 09:01:00,
2013-11-21 03:06:00,34.6,33.8,30.08,South,169,0.0,1.0,97,0.00,,,0.00,VWS V14.01,2013-11-21 09:06:00,
2013-11-21 03:11:00,34.6,33.8,30.09,South,169,1.0,2.0,97,0.00,,,0.00,VWS V14.01,2013-11-21 09:11:00,
2013-11-21 03:16:00,34.6,33.8,30.09,South,169,0.0,2.0,97,0.00,,,0.00,VWS V14.01,2013-11-21 09:16:00,
2013-11-21 03:21:00,34.6,33.8,30.09,South,169,2.0,2.0,97,0.00,,,0.00,VWS V14.01,2013-11-21 09:21:00,
2013-11-21 03:26:00,34.6,33.8,30.09,South,169,0.0,2.0,97,0.00,,,0.00,VWS V14.01,2013-11-21 09:26:00,
2013-11-21 03:30:00,34.6,33.8,30.09,South,169,0.0,2.0,97,0.00,,,0.00,VWS V14.01,2013-11-21 09:30:00,
2013-11-21 03:31:00,34.6,33.8,30.09,South,169,0.0,0.0,97,0.00,,,0.00,VWS V14.01,2013-11-21 09:31:00,
2013-11-21 03:36:00,34.6,33.8,30.09,South,169,1.0,1.0,97,0.00,,,0.00,VWS V14.01,2013-11-21 09:36:00,
2013-11-21 03:41:00,34.6,33.8,30.09,South,169,0.0,2.0,97,0.00,,,0.00,VWS V14.01,2013-11-21 09:41:00,
2013-11-21 03:46:00,34.6,33.8,30.08,South,169,1.0,4.0,97,0.00,,,0.00,VWS V14.01,2013-11-21 09:46:00,
2013-11-21 03:51:00,34.6,33.8,30.08,SSE,167,3.0,5.0,97,0.00,,,0.00,VWS V14.01,2013-11-21 09:51:00,
2013-11-21 03:56:00,34.6,33.8,30.09,SSE,167,3.0,5.0,97,0.00,,,0.00,VWS V14.01,2013-11-21 09:56:00,
2013-11-21 04:00:00,34.6,34.1,30.09,South,191,1.0,5.0,98,0.00,,,0.00,VWS V14.01,2013-11-21 10:00:00,
2013-11-21 04:01:00,34.6,34.1,30.09,South,191,1.0,1.0,98,0.00,,,0.00,VWS V14.01,2013-11-21 10:01:00,
2013-11-21 04:06:00,34.6,34.1,30.09,SSW,200,2.0,4.0,98,0.00,,,0.00,VWS V14.01,2013-11-21 10:06:00,
2013-11-21 04:11:00,34.6,33.8,30.09,SSW,200,0.0,4.0,97,0.00,,,0.00,VWS V14.01,2013-11-21 10:11:00,
2013-11-21 04:16:00,34.6,33.8,30.09,SSE,157,1.0,5.0,97,0.00,,,0.00,VWS V14.01,2013-11-21 10:16:00,
2013-11-21 04:21:00,34.7,33.9,30.09,SSE,160,0.0,5.0,97,0.00,,,0.00,VWS V14.01,2013-11-21 10:21:00,
2013-11-21 04:26:00,34.7,33.9,30.09,SSE,160,0.0,5.0,97,0.00,,,0.00,VWS V14.01,2013-11-21 10:26:00,
2013-11-21 04:30:00,34.7,33.9,30.09,SSE,160,0.0,5.0,97,0.00,,,0.00,VWS V14.01,2013-11-21 10:30:00,
2013-11-21 04:31:00,34.7,33.9,30.09,SSE,160,0.0,0.0,97,0.00,,,0.00,VWS V14.01,2013-11-21 10:31:00,
2013-11-21 04:36:00,34.7,33.9,30.09,SSE,160,2.0,2.0,97,0.00,,,0.00,VWS V14.01,2013-11-21 10:36:00,
2013-11-21 04:41:00,34.7,33.9,30.09,SSE,160,1.0,2.0,97,0.00,,,0.00,VWS V14.01,2013-11-21 10:41:00,
2013-11-21 04:46:00,34.7,33.9,30.09,SSE,160,0.0,2.0,97,0.00,,,0.00,VWS V14.01,2013-11-21 10:46:00,
2013-11-21 04:51:00,34.7,33.9,30.09,SSE,160,1.0,2.0,97,0.00,,,0.00,VWS V14.01,2013-11-21 10:51:00,
2013-11-21 04:56:00,34.7,34.2,30.09,South,176,0.0,3.0,98,0.00,,,0.00,VWS V14.01,2013-11-21 10:56:00,
2013-11-21 05:00:00,34.7,34.2,30.09,South,177,1.0,3.0,98,0.00,,,0.00,VWS V14.01,2013-11-21 11:00:00,
2013-11-21 05:01:00,34.7,34.2,30.09,South,177,1.0,2.0,98,0.00,,,0.00,VWS V14.01,2013-11-21 11:01:00,
2013-11-21 05:06:00,34.7,34.2,30.10,South,177,0.0,3.0,98,0.00,,,0.00,VWS V14.01,2013-11-21 11:06:00,
2013-11-21 05:11:00,34.7,34.2,30.10,South,177,2.0,3.0,98,0.00,,,0.00,VWS V14.01,2013-11-21 11:11:00,
2013-11-21 05:16:00,34.7,34.2,30.10,South,177,1.0,3.0,98,0.00,,,0.00,VWS V14.01,2013-11-21 11:16:00,
2013-11-21 05:21:00,34.7,34.2,30.10,South,177,1.0,3.0,98,0.00,,,0.00,VWS V14.01,2013-11-21 11:21:00,
2013-11-21 05:26:00,34.7,34.2,30.10,South,177,1.0,3.0,98,0.00,,,0.00,VWS V14.01,2013-11-21 11:26:00,
2013-11-21 05:30:00,34.8,34.3,30.11,South,177,1.0,3.0,98,0.00,,,0.00,VWS V14.01,2013-11-21 11:30:00,
2013-11-21 05:31:00,34.8,34.3,30.11,South,177,2.0,2.0,98,0.00,,,0.00,VWS V14.01,2013-11-21 11:31:00,
2013-11-21 05:36:00,34.8,34.3,30.11,South,177,2.0,3.0,98,0.00,,,0.00,VWS V14.01,2013-11-21 11:36:00,
2013-11-21 05:41:00,34.8,34.3,30.11,South,177,3.0,3.0,98,0.00,,,0.00,VWS V14.01,2013-11-21 11:41:00,
2013-11-21 05:46:00,34.9,34.4,30.11,SW,217,1.0,3.0,98,0.00,,,0.00,VWS V14.01,2013-11-21 11:46:00,
2013-11-21 05:51:00,34.9,34.4,30.11,SW,217,0.0,3.0,98,0.00,,,0.00,VWS V14.01,2013-11-21 11:51:00,
2013-11-21 05:56:00,34.9,34.4,30.12,SW,217,1.0,3.0,98,0.00,,,0.00,VWS V14.01,2013-11-21 11:56:00,
2013-11-21 06:00:00,34.9,34.4,30.12,SW,217,0.0,3.0,98,0.00,,,0.00,VWS V14.01,2013-11-21 12:00:00,
2013-11-21 06:01:00,34.9,34.4,30.12,SW,217,1.0,1.0,98,0.00,,,0.00,VWS V14.01,2013-11-21 12:01:00,
2013-11-21 06:06:00,35.0,34.5,30.12,SW,217,1.0,2.0,98,0.00,,,0.00,VWS V14.01,2013-11-21 12:06:00,
2013-11-21 06:11:00,35.0,34.5,30.13,SW,217,0.0,2.0,98,0.00,,,0.00,VWS V14.01,2013-11-21 12:11:00,
2013-11-21 06:16:00,35.0,34.5,30.13,SW,217,0.0,2.0,98,0.00,,,0.00,VWS V14.01,2013-11-21 12:16:00,
2013-11-21 06:21:00,35.0,34.5,30.13,SW,229,1.0,2.0,98,0.00,,,0.00,VWS V14.01,2013-11-21 12:21:00,
2013-11-21 06:26:00,35.1,34.6,30.14,SW,229,0.0,2.0,98,0.00,,,0.00,VWS V14.01,2013-11-21 12:26:00,
2013-11-21 06:30:00,35.1,34.6,30.14,West,267,1.0,4.0,98,0.00,,,0.00,VWS V14.01,2013-11-21 12:30:00,
2013-11-21 06:31:00,35.1,34.6,30.14,West,267,2.0,2.0,98,0.00,,,0.00,VWS V14.01,2013-11-21 12:31:00,
2013-11-21 06:36:00,35.1,34.6,30.14,WSW,240,0.0,4.0,98,0.00,,,0.00,VWS V14.01,2013-11-21 12:36:00,
2013-11-21 06:41:00,35.1,34.6,30.15,West,279,4.0,4.0,98,0.00,,,0.00,VWS V14.01,2013-11-21 12:41:00,
2013-11-21 06:45:00,35.2,34.7,30.15,West,268,1.0,4.0,98,0.00,,,0.00,VWS V14.01,2013-11-21 12:45:00,
2013-11-21 06:50:00,35.2,34.7,30.15,West,265,4.0,4.0,98,0.00,,,0.00,VWS V14.01,2013-11-21 12:50:00,
2013-11-21 06:55:00,35.3,34.8,30.15,West,265,3.0,6.0,98,0.00,,,0.00,VWS V14.01,2013-11-21 12:55:00,
2013-11-21 07:00:00,35.3,34.8,30.15,West,273,4.0,4.0,98,0.00,,,0.00,VWS V14.01,2013-11-21 13:00:00,
2013-11-21 07:05:00,35.3,34.8,30.15,WNW,284,2.0,6.0,98,0.00,,,0.00,VWS V14.01,2013-11-21 13:05:00,
2013-11-21 07:10:00,35.3,34.8,30.15,NW,311,4.0,6.0,98,0.00,,,0.00,VWS V14.01,2013-11-21 13:10:00,
2013-11-21 07:15:00,35.3,34.8,30.15,WNW,288,3.0,7.0,98,0.00,,,0.00,VWS V14.01,2013-11-21 13:15:00,
2013-11-21 07:20:00,35.3,34.8,30.15,WNW,303,4.0,7.0,98,0.00,,,0.00,VWS V14.01,2013-11-21 13:20:00,
2013-11-21 07:25:00,35.3,34.8,30.16,NW,304,3.0,8.0,98,0.00,,,0.00,VWS V14.01,2013-11-21 13:25:00,
2013-11-21 07:30:00,35.3,34.8,30.16,NW,311,3.0,4.0,98,0.00,,,0.00,VWS V14.01,2013-11-21 13:30:00,
2013-11-21 07:35:00,35.2,34.7,30.16,NW,306,9.0,16.0,98,0.00,,,0.00,VWS V14.01,2013-11-21 13:35:00,
2013-11-21 07:40:00,34.9,34.4,30.17,NNW,333,10.0,16.0,98,0.00,,,0.00,VWS V14.01,2013-11-21 13:40:00,
2013-11-21 07:45:00,34.3,33.8,30.17,NW,313,10.0,20.0,98,0.00,,,0.00,VWS V14.01,2013-11-21 13:45:00,
2013-11-21 07:50:00,33.5,33.0,30.18,NW,310,12.0,20.0,98,0.00,,,0.00,VWS V14.01,2013-11-21 13:50:00,
2013-11-21 07:55:00,32.8,31.8,30.18,NNW,328,11.0,20.0,96,0.00,,,0.00,VWS V14.01,2013-11-21 13:55:00,
2013-11-21 08:00:00,32.3,31.0,30.18,NW,317,11.0,20.0,95,0.00,,,0.00,VWS V14.01,2013-11-21 14:00:00,
2013-11-21 08:05:00,32.0,30.7,30.19,NNW,334,10.0,16.0,95,0.00,,,0.00,VWS V14.01,2013-11-21 14:05:00,
2013-11-21 08:10:00,31.9,30.6,30.19,North,355,16.0,18.0,95,0.00,,,0.00,VWS V14.01,2013-11-21 14:10:00,
2013-11-21 08:15:00,31.8,30.5,30.20,WNW,303,8.0,18.0,95,0.00,,,0.00,VWS V14.01,2013-11-21 14:15:00,
2013-11-21 08:20:00,31.7,30.4,30.20,NW,313,8.0,18.0,95,0.00,,,0.00,VWS V14.01,2013-11-21 14:20:00,
2013-11-21 08:25:00,31.5,30.2,30.20,NW,317,9.0,18.0,95,0.00,,,0.00,VWS V14.01,2013-11-21 14:25:00,
2013-11-21 08:30:00,31.3,29.8,30.21,NNW,332,10.0,19.0,94,0.00,,,0.00,VWS V14.01,2013-11-21 14:30:00,
2013-11-21 08:35:00,31.1,29.6,30.21,NNW,331,8.0,15.0,94,0.00,,,0.00,VWS V14.01,2013-11-21 14:35:00,
2013-11-21 08:40:00,31.0,29.5,30.22,NW,311,11.0,15.0,94,0.00,,,0.00,VWS V14.01,2013-11-21 14:40:00,
2013-11-21 08:45:00,30.9,29.1,30.22,NW,324,6.0,15.0,93,0.00,,,0.00,VWS V14.01,2013-11-21 14:45:00,
2013-11-21 08:50:00,30.7,28.9,30.22,NNW,341,12.0,17.0,93,0.00,,,0.00,VWS V14.01,2013-11-21 14:50:00,
2013-11-21 08:55:00,30.6,28.8,30.23,NW,323,6.0,17.0,93,0.00,,,0.00,VWS V14.01,2013-11-21 14:55:00,
2013-11-21 09:00:00,30.4,28.4,30.23,NNW,345,10.0,21.0,92,0.00,,,0.00,VWS V14.01,2013-11-21 15:00:00,
2013-11-21 09:05:00,30.2,27.9,30.23,NW,324,10.0,17.0,91,0.00,,,0.00,VWS V14.01,2013-11-21 15:05:00,
2013-11-21 09:10:00,29.9,27.6,30.23,NNW,331,12.0,19.0,91,0.00,,,0.00,VWS V14.01,2013-11-21 15:10:00,
2013-11-21 09:15:00,29.8,27.5,30.23,NNW,331,10.0,19.0,91,0.00,,,0.00,VWS V14.01,2013-11-21 15:15:00,
2013-11-21 09:20:00,29.7,27.4,30.24,NNW,348,16.0,21.0,91,0.00,,,0.00,VWS V14.01,2013-11-21 15:20:00,
2013-11-21 09:25:00,29.7,27.1,30.24,NNW,343,17.0,21.0,90,0.00,,,0.00,VWS V14.01,2013-11-21 15:25:00,
2013-11-21 09:30:00,29.6,26.5,30.24,North,5,17.0,21.0,88,0.00,,,0.00,VWS V14.01,2013-11-21 15:30:00,
2013-11-21 09:35:00,29.4,26.3,30.25,NNW,338,15.0,18.0,88,0.00,,,0.00,VWS V14.01,2013-11-21 15:35:00,
2013-11-21 09:40:00,29.2,26.1,30.25,NNW,338,12.0,18.0,88,0.00,,,0.00,VWS V14.01,2013-11-21 15:40:00,
2013-11-21 09:45:00,29.1,26.0,30.25,North,350,11.0,18.0,88,0.00,,,0.00,VWS V14.01,2013-11-21 15:45:00,
2013-11-21 09:50:00,29.0,25.6,30.25,NNW,339,15.0,18.0,87,0.00,,,0.00,VWS V14.01,2013-11-21 15:50:00,
2013-11-21 09:55:00,29.0,25.4,30.26,NNW,334,15.0,18.0,86,0.00,,,0.00,VWS V14.01,2013-11-21 15:55:00,
2013-11-21 10:00:00,28.9,25.2,30.26,NW,319,13.0,18.0,86,0.00,,,0.00,VWS V14.01,2013-11-21 16:00:00,
2013-11-21 10:05:00,28.9,25.2,30.26,NNW,342,8.0,14.0,86,0.00,,,0.00,VWS V14.01,2013-11-21 16:05:00,
2013-11-21 10:10:00,28.9,25.5,30.26,NW,324,8.0,17.0,87,0.00,,,0.00,VWS V14.01,2013-11-21 16:10:00,
2013-11-21 10:15:00,28.9,25.0,30.26,NNW,342,14.0,17.0,85,0.00,,,0.00,VWS V14.01,2013-11-21 16:15:00,
2013-11-21 10:20:00,28.8,24.6,30.27,North,360,14.0,17.0,84,0.00,,,0.00,VWS V14.01,2013-11-21 16:20:00,
2013-11-21 10:25:00,28.8,24.6,30.27,North,5,11.0,17.0,84,0.00,,,0.00,VWS V14.01,2013-11-21 16:25:00,
2013-11-21 10:30:00,28.8,24.6,30.27,NNW,346,16.0,18.0,84,0.00,,,0.00,VWS V14.01,2013-11-21 16:30:00,
2013-11-21 10:35:00,28.7,24.2,30.27,NNW,338,14.0,19.0,83,0.00,,,0.00,VWS V14.01,2013-11-21 16:35:00,
2013-11-21 10:40:00,28.5,23.7,30.27,NNW,329,12.0,21.0,82,0.00,,,0.00,VWS V14.01,2013-11-21 16:40:00,
2013-11-21 10:45:00,28.5,23.4,30.27,NNW,342,15.0,21.0,81,0.00,,,0.00,VWS V14.01,2013-11-21 16:45:00,
2013-11-21 10:50:00,28.4,23.3,30.28,NNW,346,15.0,21.0,81,0.00,,,0.00,VWS V14.01,2013-11-21 16:50:00,
2013-11-21 10:55:00,28.3,22.9,30.28,NNW,346,15.0,21.0,80,0.00,,,0.00,VWS V14.01,2013-11-21 16:55:00,
2013-11-21 11:00:00,28.1,22.7,30.28,NNW,344,17.0,22.0,80,0.00,,,0.00,VWS V14.01,2013-11-21 17:00:00,
2013-11-21 11:05:00,28.0,22.6,30.28,NNW,344,15.0,18.0,80,0.00,,,0.00,VWS V14.01,2013-11-21 17:05:00,
2013-11-21 11:10:00,28.0,22.6,30.28,NNW,342,10.0,19.0,80,0.00,,,0.00,VWS V14.01,2013-11-21 17:10:00,
2013-11-21 11:15:00,28.0,22.6,30.28,North,350,9.0,19.0,80,0.00,,,0.00,VWS V14.01,2013-11-21 17:15:00,
2013-11-21 11:20:00,28.0,22.0,30.29,NNW,341,12.0,19.0,78,0.00,,,0.00,VWS V14.01,2013-11-21 17:20:00,
2013-11-21 11:25:00,28.0,21.7,30.29,North,11,16.0,21.0,77,0.00,,,0.00,VWS V14.01,2013-11-21 17:25:00,
2013-11-21 11:30:00,28.0,22.3,30.29,NNW,328,11.0,21.0,79,0.00,,,0.00,VWS V14.01,2013-11-21 17:30:00,
2013-11-21 11:35:00,27.9,22.2,30.29,NNW,333,10.0,17.0,79,0.00,,,0.00,VWS V14.01,2013-11-21 17:35:00,
2013-11-21 11:40:00,27.8,22.4,30.29,NNW,335,8.0,19.0,80,0.00,,,0.00,VWS V14.01,2013-11-21 17:40:00,
2013-11-21 11:45:00,27.9,21.9,30.29,North,350,15.0,19.0,78,0.00,,,0.00,VWS V14.01,2013-11-21 17:45:00,
2013-11-21 11:50:00,28.0,22.0,30.29,North,355,11.0,19.0,78,0.00,,,0.00,VWS V14.01,2013-11-21 17:50:00,
2013-11-21 11:55:00,28.1,22.1,30.29,North,355,12.0,19.0,78,0.00,,,0.00,VWS V14.01,2013-11-21 17:55:00,
2013-11-21 12:00:00,28.2,21.9,30.29,NNW,331,9.0,19.0,77,0.00,,,0.00,VWS V14.01,2013-11-21 18:00:00,
2013-11-21 12:05:00,28.2,21.9,30.29,NNW,347,10.0,16.0,77,0.00,,,0.00,VWS V14.01,2013-11-21 18:05:00,
2013-11-21 12:10:00,28.2,22.2,30.30,NNW,340,10.0,16.0,78,0.00,,,0.00,VWS V14.01,2013-11-21 18:10:00,
2013-11-21 12:15:00,28.2,22.2,30.30,NW,312,10.0,16.0,78,0.00,,,0.00,VWS V14.01,2013-11-21 18:15:00,
2013-11-21 12:20:00,28.1,22.1,30.31,NNW,336,6.0,16.0,78,0.00,,,0.00,VWS V14.01,2013-11-21 18:20:00,
2013-11-21 12:25:00,28.2,21.9,30.30,North,355,11.0,16.0,77,0.00,,,0.00,VWS V14.01,2013-11-21 18:25:00,
2013-11-21 12:30:00,28.2,21.9,30.30,North,355,13.0,16.0,77,0.00,,,0.00,VWS V14.01,2013-11-21 18:30:00,
2013-11-21 12:35:00,28.1,21.8,30.31,NNW,341,13.0,14.0,77,0.00,,,0.00,VWS V14.01,2013-11-21 18:35:00,
2013-11-21 12:40:00,28.3,22.0,30.31,NNW,342,6.0,16.0,77,0.00,,,0.00,VWS V14.01,2013-11-21 18:40:00,
2013-11-21 12:45:00,28.4,22.1,30.31,North,360,12.0,20.0,77,0.00,,,0.00,VWS V14.01,2013-11-21 18:45:00,
2013-11-21 12:50:00,28.4,22.1,30.31,NNW,332,12.0,20.0,77,0.00,,,0.00,VWS V14.01,2013-11-21 18:50:00,
2013-11-21 12:55:00,28.3,21.4,30.31,NNW,336,12.0,20.0,75,0.00,,,0.00,VWS V14.01,2013-11-21 18:55:00,
2013-11-21 13:00:00,28.2,21.6,30.32,NW,321,13.0,20.0,76,0.00,,,0.00,VWS V14.01,2013-11-21 19:00:00,
2013-11-21 13:05:00,28.1,21.2,30.32,NNW,336,10.0,17.0,75,0.00,,,0.00,VWS V14.01,2013-11-21 19:05:00,
2013-11-21 13:10:00,28.0,21.1,30.32,North,5,8.0,21.0,75,0.00,,,0.00,VWS V14.01,2013-11-21 19:10:00,
2013-11-21 13:15:00,28.0,21.1,30.32,North,9,7.0,21.0,75,0.00,,,0.00,VWS V14.01,2013-11-21 19:15:00,
2013-11-21 13:20:00,27.9,20.7,30.32,NNW,343,10.0,21.0,74,0.00,,,0.00,VWS V14.01,2013-11-21 19:20:00,
2013-11-21 13:25:00,27.9,21.0,30.33,NNW,341,9.0,21.0,75,0.00,,,0.00,VWS V14.01,2013-11-21 19:25:00,
2013-11-21 13:30:00,28.0,21.1,30.33,NW,326,6.0,21.0,75,0.00,,,0.00,VWS V14.01,2013-11-21 19:30:00,
2013-11-21 13:35:00,27.9,21.3,30.33,NNW,338,10.0,17.0,76,0.00,,,0.00,VWS V14.01,2013-11-21 19:35:00,
2013-11-21 13:40:00,27.8,21.2,30.33,NNW,332,11.0,17.0,76,0.00,,,0.00,VWS V14.01,2013-11-21 19:40:00,
2013-11-21 13:45:00,27.7,21.1,30.33,NW,321,11.0,19.0,76,0.00,,,0.00,VWS V14.01,2013-11-21 19:45:00,
2013-11-21 13:50:00,27.6,21.0,30.33,NNW,328,11.0,19.0,76,0.00,,,0.00,VWS V14.01,2013-11-21 19:50:00,
2013-11-21 13:55:00,27.5,20.9,30.33,NNW,336,12.0,19.0,76,0.00,,,0.00,VWS V14.01,2013-11-21 19:55:00,
2013-11-21 14:00:00,27.4,20.8,30.34,North,355,15.0,19.0,76,0.00,,,0.00,VWS V14.01,2013-11-21 20:00:00,
2013-11-21 14:05:00,27.4,21.1,30.34,North,355,15.0,18.0,77,0.00,,,0.00,VWS V14.01,2013-11-21 20:05:00,
2013-11-21 14:10:00,27.3,21.1,30.35,North,350,13.0,19.0,77,0.00,,,0.00,VWS V14.01,2013-11-21 20:10:00,
2013-11-21 14:15:00,27.3,20.8,30.35,NNW,340,12.0,20.0,76,0.00,,,0.00,VWS V14.01,2013-11-21 20:15:00,
2013-11-21 14:20:00,27.2,21.0,30.35,NNW,344,9.0,20.0,77,0.00,,,0.00,VWS V14.01,2013-11-21 20:20:00,
2013-11-21 14:25:00,27.3,21.1,30.35,NNW,347,8.0,20.0,77,0.00,,,0.00,VWS V14.01,2013-11-21 20:25:00,
2013-11-21 14:30:00,27.4,21.5,30.36,NNW,331,11.0,20.0,78,0.00,,,0.00,VWS V14.01,2013-11-21 20:30:00,
2013-11-21 14:35:00,27.3,21.1,30.36,NNW,330,12.0,18.0,77,0.00,,,0.00,VWS V14.01,2013-11-21 20:35:00,
2013-11-21 14:40:00,27.2,21.0,30.36,North,360,13.0,19.0,77,0.00,,,0.00,VWS V14.01,2013-11-21 20:40:00,
2013-11-21 14:45:00,27.3,21.4,30.36,NNW,341,9.0,19.0,78,0.00,,,0.00,VWS V14.01,2013-11-21 20:45:00,
2013-11-21 14:50:00,27.3,21.1,30.37,NNW,336,9.0,19.0,77,0.00,,,0.00,VWS V14.01,2013-11-21 20:50:00,
2013-11-21 14:55:00,27.4,21.1,30.36,NNW,341,8.0,19.0,77,0.00,,,0.00,VWS V14.01,2013-11-21 20:55:00,
2013-11-21 15:00:00,27.4,21.1,30.36,North,9,10.0,19.0,77,0.00,,,0.00,VWS V14.01,2013-11-21 21:00:00,
2013-11-21 15:05:00,27.5,20.9,30.37,NNW,346,9.0,13.0,76,0.00,,,0.00,VWS V14.01,2013-11-21 21:05:00,
2013-11-21 15:10:00,27.5,20.9,30.37,North,355,6.0,13.0,76,0.00,,,0.00,VWS V14.01,2013-11-21 21:10:00,
2013-11-21 15:15:00,27.6,20.7,30.37,North,360,12.0,17.0,75,0.00,,,0.00,VWS V14.01,2013-11-21 21:15:00,
2013-11-21 15:20:00,27.7,20.8,30.37,NNW,332,8.0,17.0,75,0.00,,,0.00,VWS V14.01,2013-11-21 21:20:00,
2013-11-21 15:25:00,27.7,20.5,30.37,NNW,339,15.0,17.0,74,0.00,,,0.00,VWS V14.01,2013-11-21 21:25:00,
2013-11-21 15:30:00,27.7,20.2,30.38,North,355,15.0,20.0,73,0.00,,,0.00,VWS V14.01,2013-11-21 21:30:00,
2013-11-21 15:35:00,27.7,20.5,30.38,North,355,13.0,16.0,74,0.00,,,0.00,VWS V14.01,2013-11-21 21:35:00,
2013-11-21 15:40:00,27.7,20.2,30.38,NW,323,10.0,19.0,73,0.00,,,0.00,VWS V14.01,2013-11-21 21:40:00,
2013-11-21 15:45:00,27.7,20.2,30.38,North,355,9.0,19.0,73,0.00,,,0.00,VWS V14.01,2013-11-21 21:45:00,
2013-11-21 15:50:00,27.6,20.1,30.38,NNW,341,8.0,19.0,73,0.00,,,0.00,VWS V14.01,2013-11-21 21:50:00,
2013-11-21 15:55:00,27.6,19.8,30.39,NW,320,10.0,19.0,72,0.00,,,0.00,VWS V14.01,2013-11-21 21:55:00,
2013-11-21 16:00:00,27.5,19.7,30.39,NNW,345,12.0,19.0,72,0.00,,,0.00,VWS V14.01,2013-11-21 22:00:00,
2013-11-21 16:05:00,27.5,19.4,30.39,NNW,347,10.0,17.0,71,0.00,,,0.00,VWS V14.01,2013-11-21 22:05:00,
2013-11-21 16:10:00,27.5,19.4,30.40,North,350,8.0,18.0,71,0.00,,,0.00,VWS V14.01,2013-11-21 22:10:00,
2013-11-21 16:15:00,27.5,19.4,30.40,North,360,8.0,18.0,71,0.00,,,0.00,VWS V14.01,2013-11-21 22:15:00,
2013-11-21 16:20:00,27.4,19.2,30.40,North,355,11.0,18.0,71,0.00,,,0.00,VWS V14.01,2013-11-21 22:20:00,
2013-11-21 16:25:00,27.3,18.8,30.40,NNW,346,15.0,18.0,70,0.00,,,0.00,VWS V14.01,2013-11-21 22:25:00,
2013-11-21 16:30:00,27.1,18.6,30.40,NNW,341,11.0,18.0,70,0.00,,,0.00,VWS V14.01,2013-11-21 22:30:00,
2013-11-21 16:35:00,27.0,18.5,30.41,NNW,343,8.0,15.0,70,0.00,,,0.00,VWS V14.01,2013-11-21 22:35:00,
2013-11-21 16:40:00,27.0,18.5,30.41,NNW,337,8.0,16.0,70,0.00,,,0.00,VWS V14.01,2013-11-21 22:40:00,
2013-11-21 16:45:00,26.9,18.4,30.41,NNW,345,15.0,19.0,70,0.00,,,0.00,VWS V14.01,2013-11-21 22:45:00,
2013-11-21 16:50:00,26.8,18.0,30.41,NNW,348,16.0,19.0,69,0.00,,,0.00,VWS V14.01,2013-11-21 22:50:00,
2013-11-21 16:55:00,26.7,17.9,30.42,NNW,343,8.0,19.0,69,0.00,,,0.00,VWS V14.01,2013-11-21 22:55:00,
2013-11-21 17:00:00,26.7,17.9,30.42,NNW,344,9.0,19.0,69,0.00,,,0.00,VWS V14.01,2013-11-21 23:00:00,
2013-11-21 17:05:00,26.7,18.2,30.42,North,355,11.0,13.0,70,0.00,,,0.00,VWS V14.01,2013-11-21 23:05:00,
2013-11-21 17:10:00,26.7,17.9,30.42,NNW,337,16.0,17.0,69,0.00,,,0.00,VWS V14.01,2013-11-21 23:10:00,
2013-11-21 17:15:00,26.7,17.9,30.42,North,355,13.0,18.0,69,0.00,,,0.00,VWS V14.01,2013-11-21 23:15:00,
2013-11-21 17:20:00,26.6,18.1,30.42,NNW,337,8.0,18.0,70,0.00,,,0.00,VWS V14.01,2013-11-21 23:20:00,
2013-11-21 17:25:00,26.6,18.1,30.43,NNW,336,12.0,18.0,70,0.00,,,0.00,VWS V14.01,2013-11-21 23:25:00,
2013-11-21 17:30:00,26.6,17.8,30.42,NNW,338,9.0,18.0,69,0.00,,,0.00,VWS V14.01,2013-11-21 23:30:00,
2013-11-21 17:35:00,26.6,17.5,30.43,NNW,344,10.0,19.0,68,0.00,,,0.00,VWS V14.01,2013-11-21 23:35:00,
2013-11-21 17:40:00,26.5,17.7,30.43,North,9,12.0,19.0,69,0.00,,,0.00,VWS V14.01,2013-11-21 23:40:00,
2013-11-21 17:45:00,26.5,17.7,30.43,NNW,333,10.0,19.0,69,0.00,,,0.00,VWS V14.01,2013-11-21 23:45:00,
2013-11-21 17:50:00,26.4,17.6,30.43,North,5,10.0,19.0,69,0.00,,,0.00,VWS V14.01,2013-11-21 23:50:00,
2013-11-21 17:55:00,26.2,17.1,30.43,NNW,331,17.0,19.0,68,0.00,,,0.00,VWS V14.01,2013-11-21 23:55:00,
2013-11-21 18:00:00,26.1,17.0,30.43,NNW,342,6.0,19.0,68,0.00,,,0.00,VWS V14.01,2013-11-22 00:00:00,
2013-11-21 18:05:00,26.1,17.0,30.44,North,350,12.0,19.0,68,0.00,,,0.00,VWS V14.01,2013-11-22 00:05:00,
2013-11-21 18:10:00,26.0,16.9,30.44,North,350,12.0,19.0,68,0.00,,,0.00,VWS V14.01,2013-11-22 00:10:00,
2013-11-21 18:15:00,26.0,16.9,30.44,North,360,12.0,19.0,68,0.00,,,0.00,VWS V14.01,2013-11-22 00:15:00,
2013-11-21 18:20:00,25.9,17.1,30.44,NNW,342,14.0,19.0,69,0.00,,,0.00,VWS V14.01,2013-11-22 00:20:00,
2013-11-21 18:25:00,25.8,17.0,30.44,North,351,17.0,20.0,69,0.00,,,0.00,VWS V14.01,2013-11-22 00:25:00,
2013-11-21 18:30:00,25.6,16.5,30.44,North,11,11.0,20.0,68,0.00,,,0.00,VWS V14.01,2013-11-22 00:30:00,
2013-11-21 18:35:00,25.6,16.9,30.45,North,10,9.0,18.0,69,0.00,,,0.00,VWS V14.01,2013-11-22 00:35:00,
2013-11-21 18:40:00,25.5,16.4,30.45,North,349,14.0,20.0,68,0.00,,,0.00,VWS V14.01,2013-11-22 00:40:00,
2013-11-21 18:45:00,25.5,16.8,30.45,North,350,10.0,20.0,69,0.00,,,0.00,VWS V14.01,2013-11-22 00:45:00,
2013-11-21 18:50:00,25.4,16.7,30.45,North,349,10.0,20.0,69,0.00,,,0.00,VWS V14.01,2013-11-22 00:50:00,
2013-11-21 18:55:00,25.3,16.6,30.45,NNW,346,12.0,20.0,69,0.00,,,0.00,VWS V14.01,2013-11-22 00:55:00,
2013-11-21 19:00:00,25.2,16.5,30.45,NNW,346,9.0,20.0,69,0.00,,,0.00,VWS V14.01,2013-11-22 01:00:00,
2013-11-21 19:05:00,25.1,16.7,30.46,NNW,342,11.0,13.0,70,0.00,,,0.00,VWS V14.01,2013-11-22 01:05:00,
2013-11-21 19:10:00,25.1,16.7,30.46,NW,325,10.0,17.0,70,0.00,,,0.00,VWS V14.01,2013-11-22 01:10:00,
2013-11-21 19:14:00,24.9,16.5,30.46,NNW,342,14.0,17.0,70,0.00,,,0.00,VWS V14.01,2013-11-22 01:14:00,
2013-11-21 19:19:00,24.9,16.2,30.46,North,350,16.0,17.0,69,0.00,,,0.00,VWS V14.01,2013-11-22 01:19:00,
2013-11-21 19:24:00,24.7,16.0,30.47,North,350,12.0,19.0,69,0.00,,,0.00,VWS V14.01,2013-11-22 01:24:00,
2013-11-21 19:29:00,24.7,16.0,30.47,NNW,333,15.0,19.0,69,0.00,,,0.00,VWS V14.01,2013-11-22 01:29:00,
2013-11-21 19:30:00,24.6,15.9,30.47,NNW,343,10.0,19.0,69,0.00,,,0.00,VWS V14.01,2013-11-22 01:30:00,
2013-11-21 19:34:00,24.6,15.9,30.47,NW,310,15.0,18.0,69,0.00,,,0.00,VWS V14.01,2013-11-22 01:34:00,
2013-11-21 19:39:00,24.5,15.5,30.48,North,350,6.0,18.0,68,0.00,,,0.00,VWS V14.01,2013-11-22 01:39:00,
2013-11-21 19:44:00,24.5,15.8,30.48,North,360,9.0,18.0,69,0.00,,,0.00,VWS V14.01,2013-11-22 01:44:00,
2013-11-21 19:49:00,24.5,15.8,30.48,NNW,344,8.0,18.0,69,0.00,,,0.00,VWS V14.01,2013-11-22 01:49:00,
2013-11-21 19:54:00,24.5,16.1,30.48,North,9,13.0,18.0,70,0.00,,,0.00,VWS V14.01,2013-11-22 01:54:00,
2013-11-21 19:59:00,24.4,15.4,30.48,North,355,11.0,18.0,68,0.00,,,0.00,VWS V14.01,2013-11-22 01:59:00,
2013-11-21 20:00:00,24.4,15.7,30.48,NNW,346,8.0,18.0,69,0.00,,,0.00,VWS V14.01,2013-11-22 02:00:00,
2013-11-21 20:04:00,24.4,15.7,30.48,North,5,10.0,14.0,69,0.00,,,0.00,VWS V14.01,2013-11-22 02:04:00,
2013-11-21 20:08:00,24.3,15.3,30.48,NNW,341,11.0,19.0,68,0.00,,,0.00,VWS V14.01,2013-11-22 02:08:00,
2013-11-21 20:13:00,24.3,15.3,30.48,North,5,9.0,19.0,68,0.00,,,0.00,VWS V14.01,2013-11-22 02:13:00,
2013-11-21 20:18:00,24.2,15.2,30.49,North,355,10.0,19.0,68,0.00,,,0.00,VWS V14.01,2013-11-22 02:18:00,
2013-11-21 20:23:00,24.1,15.8,30.49,NNW,344,5.0,19.0,70,0.00,,,0.00,VWS V14.01,2013-11-22 02:23:00,
2013-11-21 20:28:00,24.0,16.0,30.49,NNW,348,10.0,19.0,71,0.00,,,0.00,VWS V14.01,2013-11-22 02:28:00,
2013-11-21 20:30:00,24.0,16.0,30.49,NNW,340,10.0,19.0,71,0.00,,,0.00,VWS V14.01,2013-11-22 02:30:00,
2013-11-21 20:33:00,24.0,16.0,30.49,NNW,333,8.0,17.0,71,0.00,,,0.00,VWS V14.01,2013-11-22 02:33:00,
2013-11-21 20:38:00,23.9,15.9,30.49,NNW,346,11.0,17.0,71,0.00,,,0.00,VWS V14.01,2013-11-22 02:38:00,
2013-11-21 20:43:00,23.7,16.0,30.49,NNW,344,11.0,17.0,72,0.00,,,0.00,VWS V14.01,2013-11-22 02:43:00,
2013-11-21 20:48:00,23.5,16.1,30.49,NW,313,13.0,17.0,73,0.00,,,0.00,VWS V14.01,2013-11-22 02:48:00,
2013-11-21 20:53:00,23.4,16.0,30.50,North,351,6.0,17.0,73,0.00,,,0.00,VWS V14.01,2013-11-22 02:53:00,
2013-11-21 20:58:00,23.2,15.8,30.50,NNW,342,10.0,17.0,73,0.00,,,0.00,VWS V14.01,2013-11-22 02:58:00,
2013-11-21 21:00:00,23.2,15.8,30.50,NNW,344,10.0,17.0,73,0.00,,,0.00,VWS V14.01,2013-11-22 03:00:00,
2013-11-21 21:03:00,23.1,15.8,30.50,NW,317,8.0,12.0,73,0.00,,,0.00,VWS V14.01,2013-11-22 03:03:00,
2013-11-21 21:08:00,23.0,15.6,30.50,NNW,335,9.0,12.0,73,0.00,,,0.00,VWS V14.01,2013-11-22 03:08:00,
2013-11-21 21:13:00,22.9,15.9,30.50,North,349,6.0,13.0,74,0.00,,,0.00,VWS V14.01,2013-11-22 03:13:00,
2013-11-21 21:18:00,22.8,15.8,30.51,North,355,8.0,13.0,74,0.00,,,0.00,VWS V14.01,2013-11-22 03:18:00,
2013-11-21 21:23:00,22.6,15.6,30.51,NNW,334,11.0,13.0,74,0.00,,,0.00,VWS V14.01,2013-11-22 03:23:00,
2013-11-21 21:28:00,22.5,15.8,30.51,NW,322,5.0,13.0,75,0.00,,,0.00,VWS V14.01,2013-11-22 03:28:00,
2013-11-21 21:30:00,22.5,15.8,30.51,NNW,345,6.0,13.0,75,0.00,,,0.00,VWS V14.01,2013-11-22 03:30:00,
2013-11-21 21:33:00,22.4,15.7,30.51,NNW,328,8.0,10.0,75,0.00,,,0.00,VWS V14.01,2013-11-22 03:33:00,
2013-11-21 21:38:00,22.4,15.7,30.51,NNW,335,9.0,15.0,75,0.00,,,0.00,VWS V14.01,2013-11-22 03:38:00,
2013-11-21 21:43:00,22.3,15.6,30.51,WNW,298,7.0,15.0,75,0.00,,,0.00,VWS V14.01,2013-11-22 03:43:00,
2013-11-21 21:48:00,22.2,15.8,30.52,North,355,10.0,15.0,76,0.00,,,0.00,VWS V14.01,2013-11-22 03:48:00,
2013-11-21 21:53:00,22.2,15.5,30.51,NW,325,11.0,16.0,75,0.00,,,0.00,VWS V14.01,2013-11-22 03:53:00,
2013-11-21 21:58:00,22.2,15.5,30.52,NW,311,8.0,16.0,75,0.00,,,0.00,VWS V14.01,2013-11-22 03:58:00,
2013-11-21 22:00:00,22.2,15.5,30.52,NW,319,9.0,16.0,75,0.00,,,0.00,VWS V14.01,2013-11-22 04:00:00,
2013-11-21 22:03:00,22.2,15.5,30.52,North,350,12.0,12.0,75,0.00,,,0.00,VWS V14.01,2013-11-22 04:03:00,
2013-11-21 22:08:00,22.2,15.8,30.52,North,349,8.0,12.0,76,0.00,,,0.00,VWS V14.01,2013-11-22 04:08:00,
2013-11-21 22:13:00,22.1,15.4,30.52,NNW,346,5.0,14.0,75,0.00,,,0.00,VWS V14.01,2013-11-22 04:13:00,
2013-11-21 22:18:00,22.1,15.4,30.52,NW,325,8.0,14.0,75,0.00,,,0.00,VWS V14.01,2013-11-22 04:18:00,
2013-11-21 22:23:00,22.0,15.3,30.53,NNW,340,15.0,18.0,75,0.00,,,0.00,VWS V14.01,2013-11-22 04:23:00,
2013-11-21 22:28:00,21.9,15.2,30.53,NNW,333,13.0,18.0,75,0.00,,,0.00,VWS V14.01,2013-11-22 04:28:00,
2013-11-21 22:30:00,21.9,15.2,30.53,NNW,340,14.0,18.0,75,0.00,,,0.00,VWS V14.01,2013-11-22 04:30:00,
2013-11-21 22:33:00,21.8,15.1,30.53,North,5,10.0,14.0,75,0.00,,,0.00,VWS V14.01,2013-11-22 04:33:00,
2013-11-21 22:38:00,21.8,15.1,30.54,NNW,340,11.0,14.0,75,0.00,,,0.00,VWS V14.01,2013-11-22 04:38:00,
2013-11-21 22:43:00,21.7,15.3,30.54,NNW,337,9.0,14.0,76,0.00,,,0.00,VWS V14.01,2013-11-22 04:43:00,
2013-11-21 22:48:00,21.6,14.9,30.54,NNW,331,10.0,14.0,75,0.00,,,0.00,VWS V14.01,2013-11-22 04:48:00,
2013-11-21 22:53:00,21.5,14.8,30.54,NNW,344,5.0,14.0,75,0.00,,,0.00,VWS V14.01,2013-11-22 04:53:00,
2013-11-21 22:58:00,21.4,14.7,30.54,NNW,327,5.0,14.0,75,0.00,,,0.00,VWS V14.01,2013-11-22 04:58:00,
2013-11-21 23:00:00,21.4,14.7,30.54,NNW,347,9.0,14.0,75,0.00,,,0.00,VWS V14.01,2013-11-22 05:00:00,
2013-11-21 23:01:00,21.4,14.7,30.54,NNW,330,6.0,11.0,75,0.00,,,0.00,VWS V14.01,2013-11-22 05:01:00,
2013-11-21 23:06:00,21.3,14.9,30.55,NNW,348,13.0,13.0,76,0.00,,,0.00,VWS V14.01,2013-11-22 05:06:00,
2013-11-21 23:11:00,21.2,14.5,30.55,NNW,336,13.0,15.0,75,0.00,,,0.00,VWS V14.01,2013-11-22 05:11:00,
2013-11-21 23:16:00,21.2,14.5,30.55,NNW,336,6.0,15.0,75,0.00,,,0.00,VWS V14.01,2013-11-22 05:16:00,
2013-11-21 23:21:00,21.1,14.7,30.55,NW,317,5.0,15.0,76,0.00,,,0.00,VWS V14.01,2013-11-22 05:21:00,
2013-11-21 23:26:00,21.1,14.7,30.55,NNE,33,6.0,15.0,76,0.00,,,0.00,VWS V14.01,2013-11-22 05:26:00,
2013-11-21 23:30:00,21.1,14.7,30.55,NNW,339,6.0,15.0,76,0.00,,,0.00,VWS V14.01,2013-11-22 05:30:00,
2013-11-21 23:31:00,21.1,14.7,30.55,NNW,331,5.0,6.0,76,0.00,,,0.00,VWS V14.01,2013-11-22 05:31:00,
2013-11-21 23:36:00,20.9,14.5,30.55,NNW,331,2.0,11.0,76,0.00,,,0.00,VWS V14.01,2013-11-22 05:36:00,
2013-11-21 23:41:00,20.9,14.5,30.55,NNW,337,5.0,11.0,76,0.00,,,0.00,VWS V14.01,2013-11-22 05:41:00,
2013-11-21 23:46:00,20.9,14.5,30.55,NNW,344,6.0,11.0,76,0.00,,,0.00,VWS V14.01,2013-11-22 05:46:00,
2013-11-21 23:51:00,20.8,14.4,30.55,North,5,10.0,12.0,76,0.00,,,0.00,VWS V14.01,2013-11-22 05:51:00,
2013-11-21 23:56:00,20.8,14.4,30.55,North,350,8.0,12.0,76,0.00,,,0.00,VWS V14.01,2013-11-22 05:56:00,